Hourly Data Report for September 02, 2017

All times are specified in Local Standard Time (LST). Add 1 hour to adjust for Daylight Saving Time where and when it is observed.

MISCOU ISLAND (AUT)
NEW BRUNSWICK

48°00'32.002" N
64°29'39.008" W
4.00 m
8103050
71719
WMI

Download Data

Hourly Data (September 2017)
Hourly Data Report for September 2, 2017
Temp Definition
°C
Dew Point Temp Definition
°C
Rel Hum Definition
%
Wind Dir Definition
10's deg

Wind Spd Definition
km/h
Visibility Definition
km
Stn Press Definition
kPa
Hmdx Definition


Wind Chill Definition


Weather Definition


TIME
00:00 10.8 7.3 79 33 34   100.87     LegendNANA
01:00 10.3 6.6 78 32 29   100.91     LegendNANA
02:00 10.1 6.3 77 32 29   101.00     LegendNANA
03:00 10.1 5.9 76 31 29   101.05     LegendNANA
04:00 10.1 6.0 76 31 30   101.11     LegendNANA
05:00 10.0 5.7 75 31 28   101.19     LegendNANA
06:00 10.1 5.8 75 32 28   101.26     LegendNANA
07:00 10.3 6.1 75 32 24   101.34     LegendNANA
08:00 10.4 5.8 73 30 22   101.43     LegendNANA
09:00 10.7 6.7 76 30 23   101.53     LegendNANA
10:00 12.1 6.9 71 31 20   101.56     LegendNANA
11:00 13.9 7.4 65 29 16   101.58     LegendNANA
12:00 14.9 7.0 59 28 11   101.60     LegendNANA
13:00 16.0 7.4 56 29 8   101.62     LegendNANA
14:00 16.5 8.2 58 24 13   101.65     LegendNANA
15:00 17.3 7.4 52 33 6   101.68     LegendNANA
16:00 15.1 9.1 67 9 11   101.76     LegendNANA
17:00 14.4 8.6 68 11 14   101.83     LegendNANA
18:00 13.8 8.1 69 12 11   101.90     LegendNANA
19:00 12.9 7.8 71 13 9   101.98     LegendNANA
20:00 13.1 8.0 71 12 8   102.06     LegendNANA
21:00 10.0 6.5 79 16 9   102.12     LegendNANA
22:00 8.7 6.1 84 18 11   102.16     LegendNANA
23:00 5.5 3.7 88 20 13   102.17     LegendNANA

Notes on Data Quality.

Legend

  • E = Estimated
  • M = Missing
  • NA = Not Available
  • ‡ = Partner data that is not subject to review by the National Climate Archives
Date modified: